Вернуться в каталог

FENGYUN 1C DEB

АктивенSSO
NORAD 30766·DEBRIS·🇨🇳 China

Запущен May 10, 1999 с Taiyuan Satellite Launch Center

Loading…

Ближайшие Пролёты (ближайшие 24 часа)

TLE

СвежийSource: Space-Track

Эпоха: Sep 14, 2026, 05:53 UTC

1 30766U 99025AUC 26257.24549863  .00000711  00000-0  41262-3 0  9997
2 30766  98.6835 252.8763 0083016  13.8948  52.8412 14.10131953666791

Отслеживайте FENGYUN 1C DEB в реальном времени с AllMySat

Download on the App Store